DECAYED

STARLINK-1701, 46550 (Decayed)

Orbit data source: Space-Track

STARLINK-1701, 46550 was a payload satellite owned by SpaceX/Seattle (US) in LEO that was launched on Tue, 06 Oct 2020 UTC via an FALCON 9 launch vehicle from the Air Force Eastern Test Range (AFETR). Payload-class satellites include a variety of spacecraft equipped with specific instruments for various scientific and technological missions. These include communications satellites like Starlink; space stations such as the ISS; scientific satellites like the Hubble; Earth observation satellites from companies like Planet Labs, Umbra, and HawkEye 360; GPS; miniature CubeSats for education and research; and military/defense satellites.

Not visible in the next 10 days
Identifier
46550, 2020-070U
Orbit
Decayed
Country
Flag of USUS
Related business
Manufacturer
SpaceX/Seattle
Mission
Decayed Commercial Communications
Bus & Motor
STARLINK, Unknown motor
Mass
260 kg wet, ~248 kg dry
Launch date (UTC)
2020-10-06 (5 years ago)
Launch vehicle
FALCON 9
Launch site
Air Force Eastern Test Range (AFETR)
Object type
Payload
Rocket body
Debris
Shape & HBR
Box + 1 Pan, 10.1 m
Radar Cross Section
13.562 m², Large (>1 m²)

Expand to show TLE details & history
Last TLE update: 8 months ago

TLE from 8 months ago
0 STARLINK-1701
1 46550U 20070U   25059.60897984  .11059146  12314-4  78953-3 0  9998
2 46550  53.0401  12.9357 0003094 177.0437   1.3892 16.40180280243739
Epoch: 2025-02-28T14:36Z
TLE epoch observation values (Epoch: 2025-02-28T14:36:55.858Z)
Latitude
1.17541°
Longitude
174.15609°
Altitude
164.083 km
Speed
7.81 km/s
True Right ascension
12h 48m 13s
True Declination
1° 10' 04"
Sunlit
Object was in full shadow at epoch
Visualization orbit readout
Latitude
Unknown
Longitude
Unknown
Altitude
Unknown
Speed
Unknown
Apparent Right ascension
Unknown
Apparent Declination
Unknown
Sunlit
N/A
Visualization observer readout
Local Sidereal Time
12:51:12
Azimuth
Unknown
Elevation
Unknown
Doppler factor
Unknown
Orbital elements
Apogee altitude
167.636 km
Perigee altitude
163.587 km
Semi-major axis
6,543.748 km
Eccentricity
0.00031
Inclination
53.0401°
RAAN
12.9357°
Arg. of periapsis
177.0437°
True anomaly
1.39006°
Mean anomaly
1.3892°
Eccentric anomaly
1.38963°
Mean motion
4.10018 °/min
Orbital period
87.8 mins
BSTAR
0.00078953
Loading maneuver chart data...
Computing Atmospheric mass density...
Loading historical data...
Loading historical data...
Loading historical data...
Loading historical data...
Loading historical data...
Loading historical data...
Loading historical data...

Documentation

Showing up to 5 results
|